VIA003 SVCP-SVMI

Flight info

Callsign VIA003
Flight time N/A
Altitude 32000
Route ESNAP UW52 CBC NETSI1
Aircraft A20N/M-SDE2E3FGHIJ1RWXY/LB1

Departure

Time N/A
Airport General Francisco Bermúdez Airport (SVCP)

Arrival

Time 2026-05-06 23:36
Airport Maiquetía Simón Bolívar International Airport (SVMI)
Time Latitude Longitude Altitude Speed Heading
2026-05-06 22:52 10.57030 -65.63832 23936 ft 419 kts 271°
2026-05-06 22:52 10.57054 -65.66792 23938 ft 419 kts 271°
2026-05-06 22:52 10.57079 -65.69795 23938 ft 419 kts 271°
2026-05-06 22:52 10.57100 -65.72367 23938 ft 420 kts 271°
2026-05-06 22:53 10.57125 -65.75354 23938 ft 420 kts 271°
2026-05-06 22:53 10.57148 -65.78327 23938 ft 420 kts 271°
2026-05-06 22:53 10.57171 -65.81297 23937 ft 420 kts 271°
2026-05-06 22:53 10.57194 -65.84250 23937 ft 420 kts 271°
2026-05-06 22:54 10.57218 -65.87218 23937 ft 420 kts 271°
2026-05-06 22:54 10.57241 -65.90138 23936 ft 421 kts 271°
2026-05-06 22:54 10.57263 -65.93086 23936 ft 421 kts 271°
2026-05-06 22:54 10.57286 -65.96076 23936 ft 421 kts 271°
2026-05-06 22:55 10.57307 -65.99059 23935 ft 422 kts 271°
2026-05-06 22:55 10.57430 -66.02055 23927 ft 421 kts 278°
2026-05-06 22:55 10.58083 -66.04929 23932 ft 420 kts 289°
2026-05-06 22:55 10.59291 -66.07661 23716 ft 418 kts 301°
2026-05-06 22:56 10.60908 -66.10103 23481 ft 416 kts 306°
2026-05-06 22:56 10.62618 -66.12484 23238 ft 414 kts 307°
2026-05-06 22:56 10.64340 -66.14863 22994 ft 413 kts 307°
2026-05-06 22:56 10.66042 -66.17223 22754 ft 412 kts 307°
2026-05-06 22:57 10.67725 -66.19572 22514 ft 410 kts 307°
2026-05-06 22:57 10.69418 -66.21943 22273 ft 409 kts 307°
2026-05-06 22:57 10.71104 -66.24310 22033 ft 408 kts 307°
2026-05-06 22:57 10.72763 -66.26640 21768 ft 407 kts 307°
2026-05-06 22:58 10.74420 -66.28969 21546 ft 406 kts 307°
2026-05-06 22:58 10.76073 -66.31294 21321 ft 405 kts 307°
2026-05-06 22:58 10.77725 -66.33618 21095 ft 404 kts 307°
2026-05-06 22:58 10.79384 -66.35953 20864 ft 403 kts 307°
2026-05-06 22:59 10.80961 -66.38313 20322 ft 406 kts 300°
2026-05-06 22:59 10.81814 -66.41074 19387 ft 420 kts 277°
2026-05-06 22:59 10.81546 -66.44073 18652 ft 425 kts 258°
2026-05-06 22:59 10.80785 -66.46958 18108 ft 423 kts 256°
2026-05-06 23:00 10.80039 -66.49824 17530 ft 421 kts 258°
2026-05-06 23:00 10.79366 -66.52749 16945 ft 418 kts 259°
2026-05-06 23:00 10.78781 -66.55618 16335 ft 417 kts 260°
2026-05-06 23:00 10.78235 -66.58518 15737 ft 415 kts 261°
2026-05-06 23:01 10.77719 -66.61385 15157 ft 413 kts 261°
2026-05-06 23:01 10.77215 -66.64254 14612 ft 410 kts 261°
2026-05-06 23:01 10.76721 -66.67092 14040 ft 408 kts 261°
2026-05-06 23:01 10.76231 -66.69926 13448 ft 406 kts 260°
2026-05-06 23:02 10.75738 -66.72772 12898 ft 404 kts 260°
2026-05-06 23:02 10.75255 -66.75564 12371 ft 400 kts 260°
2026-05-06 23:02 10.74775 -66.78336 11915 ft 395 kts 259°
2026-05-06 23:02 10.74301 -66.81072 11453 ft 390 kts 259°
2026-05-06 23:03 10.73831 -66.83779 10979 ft 386 kts 259°
2026-05-06 23:03 10.73370 -66.86444 10527 ft 381 kts 259°
2026-05-06 23:03 10.73285 -66.89121 10113 ft 375 kts 281°
2026-05-06 23:03 10.74270 -66.91461 10005 ft 357 kts 308°
2026-05-06 23:04 10.76117 -66.93058 10010 ft 334 kts 336°
2026-05-06 23:04 10.78297 -66.93548 10014 ft 309 kts
2026-05-06 23:04 10.80266 -66.92963 10022 ft 285 kts 30°
2026-05-06 23:04 10.82028 -66.92133 10007 ft 272 kts 19°
2026-05-06 23:05 10.83858 -66.91836 10017 ft 264 kts
2026-05-06 23:05 10.85723 -66.91862 10035 ft 266 kts 359°
2026-05-06 23:05 10.87596 -66.92038 10035 ft 266 kts 356°
2026-05-06 23:05 10.89434 -66.92290 9946 ft 264 kts 351°
2026-05-06 23:06 10.91228 -66.92758 9608 ft 265 kts 345°
2026-05-06 23:06 10.93003 -66.93317 9266 ft 266 kts 345°
2026-05-06 23:06 10.94769 -66.93873 8981 ft 265 kts 345°
2026-05-06 23:06 10.96534 -66.94414 8679 ft 263 kts 345°
2026-05-06 23:07 10.98296 -66.94942 8383 ft 262 kts 345°
2026-05-06 23:07 11.00059 -66.95464 8080 ft 260 kts 345°
2026-05-06 23:07 11.01804 -66.95964 7781 ft 258 kts 350°
2026-05-06 23:07 11.03563 -66.95937 7431 ft 252 kts 22°
2026-05-06 23:08 11.05039 -66.95013 7112 ft 244 kts 51°
2026-05-06 23:08 11.05876 -66.93562 6787 ft 238 kts 77°
2026-05-06 23:08 11.05984 -66.91906 6450 ft 235 kts 102°
2026-05-06 23:08 11.05371 -66.90385 6118 ft 234 kts 126°
2026-05-06 23:09 11.04157 -66.89285 5796 ft 235 kts 151°
2026-05-06 23:09 11.02590 -66.88840 5480 ft 237 kts 177°
2026-05-06 23:09 11.00941 -66.89138 5179 ft 239 kts 195°
2026-05-06 23:09 10.99361 -66.89588 4888 ft 237 kts 191°
2026-05-06 23:10 10.97740 -66.89983 4589 ft 236 kts 190°
2026-05-06 23:10 10.96124 -66.90371 4296 ft 235 kts 190°
2026-05-06 23:10 10.94525 -66.90762 4046 ft 232 kts 190°
2026-05-06 23:10 10.92953 -66.91151 4006 ft 234 kts 190°
2026-05-06 23:11 10.91343 -66.91554 4002 ft 235 kts 190°
2026-05-06 23:11 10.89739 -66.91957 4009 ft 235 kts 191°
2026-05-06 23:11 10.88143 -66.92388 4004 ft 236 kts 198°
2026-05-06 23:11 10.86790 -66.93359 3992 ft 244 kts 230°
2026-05-06 23:12 10.86070 -66.94915 4007 ft 248 kts 259°
2026-05-06 23:12 10.86129 -66.96655 4013 ft 249 kts 288°
2026-05-06 23:12 10.86971 -66.98189 4013 ft 248 kts 316°
2026-05-06 23:12 10.88394 -66.99152 4006 ft 244 kts 344°
2026-05-06 23:13 10.90062 -66.99348 4011 ft 238 kts 12°
2026-05-06 23:13 10.91679 -66.98963 4011 ft 236 kts 19°
2026-05-06 23:13 10.93275 -66.98515 4018 ft 236 kts 19°
2026-05-06 23:13 10.94864 -66.98080 4019 ft 236 kts 18°
2026-05-06 23:14 10.96473 -66.97656 4012 ft 236 kts 18°
2026-05-06 23:14 10.98062 -66.97215 4004 ft 235 kts 25°
2026-05-06 23:14 10.99378 -66.96288 4000 ft 229 kts 54°
2026-05-06 23:14 11.00115 -66.94855 4003 ft 225 kts 79°
2026-05-06 23:15 11.00167 -66.93290 3999 ft 223 kts 102°
2026-05-06 23:15 10.99563 -66.91839 4008 ft 224 kts 126°
2026-05-06 23:15 10.98391 -66.90768 4012 ft 226 kts 150°
2026-05-06 23:15 10.96882 -66.90310 4007 ft 231 kts 174°
2026-05-06 23:16 10.95251 -66.90564 4012 ft 236 kts 193°
2026-05-06 23:16 10.93679 -66.91007 4010 ft 235 kts 191°
2026-05-06 23:16 10.92075 -66.91400 4007 ft 235 kts 190°
2026-05-06 23:16 10.90464 -66.91790 4020 ft 235 kts 190°
2026-05-06 23:17 10.88857 -66.92186 4022 ft 235 kts 191°
2026-05-06 23:17 10.87330 -66.92826 4004 ft 241 kts 217°
2026-05-06 23:17 10.86299 -66.94183 4019 ft 246 kts 246°
2026-05-06 23:17 10.86006 -66.95892 4029 ft 249 kts 275°
2026-05-06 23:18 10.86514 -66.97565 4032 ft 249 kts 303°
2026-05-06 23:18 10.87711 -66.98813 4026 ft 246 kts 332°
2026-05-06 23:18 10.89313 -66.99361 4028 ft 241 kts 360°
2026-05-06 23:18 10.90966 -66.99159 4030 ft 236 kts 18°
2026-05-06 23:19 10.92575 -66.98711 4029 ft 235 kts 19°
2026-05-06 23:19 10.94160 -66.98270 4033 ft 236 kts 18°
2026-05-06 23:19 10.95755 -66.97813 4030 ft 235 kts 25°
2026-05-06 23:19 10.97026 -66.96828 4017 ft 227 kts 59°
2026-05-06 23:20 10.97610 -66.95359 4023 ft 224 kts 84°
2026-05-06 23:20 10.97541 -66.93780 4024 ft 223 kts 106°
2026-05-06 23:20 10.96857 -66.92379 4021 ft 223 kts 129°
2026-05-06 23:20 10.95656 -66.91374 4023 ft 226 kts 152°
2026-05-06 23:21 10.94105 -66.90966 4023 ft 231 kts 176°
2026-05-06 23:21 10.92494 -66.91262 4023 ft 236 kts 194°
2026-05-06 23:21 10.90905 -66.91706 4026 ft 235 kts 191°
2026-05-06 23:21 10.89304 -66.92100 4026 ft 235 kts 190°
2026-05-06 23:22 10.87705 -66.92595 4023 ft 250 kts 206°
2026-05-06 23:22 10.86378 -66.93835 4020 ft 269 kts 237°
2026-05-06 23:22 10.85746 -66.95644 4036 ft 271 kts 260°
2026-05-06 23:22 10.85398 -66.97528 4025 ft 270 kts 250°
2026-05-06 23:23 10.84632 -66.99274 4024 ft 269 kts 241°
2026-05-06 23:23 10.83757 -67.00978 4019 ft 269 kts 240°
2026-05-06 23:23 10.82850 -67.02658 4014 ft 269 kts 239°
2026-05-06 23:23 10.81929 -67.04323 4014 ft 269 kts 238°
2026-05-06 23:24 10.80996 -67.05989 4019 ft 269 kts 238°
2026-05-06 23:24 10.80070 -67.07632 4017 ft 268 kts 238°
2026-05-06 23:24 10.79134 -67.09292 4022 ft 268 kts 238°
2026-05-06 23:24 10.78193 -67.10958 4020 ft 268 kts 238°
2026-05-06 23:25 10.77258 -67.12611 4021 ft 268 kts 238°
2026-05-06 23:25 10.76330 -67.14249 4018 ft 268 kts 238°
2026-05-06 23:25 10.75389 -67.15913 4017 ft 268 kts 238°
2026-05-06 23:25 10.74484 -67.17570 4019 ft 268 kts 239°
2026-05-06 23:26 10.73590 -67.19239 4025 ft 268 kts 240°
2026-05-06 23:26 10.72688 -67.20926 4034 ft 268 kts 239°
2026-05-06 23:26 10.71791 -67.22612 4033 ft 269 kts 240°
2026-05-06 23:26 10.70903 -67.24289 4031 ft 269 kts 240°
2026-05-06 23:27 10.70020 -67.25958 4034 ft 269 kts 240°
2026-05-06 23:27 10.69125 -67.27652 4035 ft 269 kts 240°
2026-05-06 23:27 10.68085 -67.29208 4018 ft 264 kts 218°
2026-05-06 23:27 10.66450 -67.29977 4023 ft 254 kts 182°
2026-05-06 23:28 10.64788 -67.29711 4032 ft 232 kts 153°
2026-05-06 23:28 10.63487 -67.28877 4037 ft 214 kts 140°
2026-05-06 23:28 10.62339 -67.27971 4041 ft 204 kts 140°
2026-05-06 23:28 10.61228 -67.27120 4029 ft 189 kts 141°
2026-05-06 23:29 10.60257 -67.26299 4002 ft 172 kts 120°
2026-05-06 23:29 10.59827 -67.25229 4044 ft 160 kts 101°
2026-05-06 23:29 10.59702 -67.24101 4104 ft 161 kts 93°
2026-05-06 23:29 10.59697 -67.22962 4073 ft 160 kts 90°
2026-05-06 23:30 10.59727 -67.21822 4004 ft 161 kts 89°
2026-05-06 23:30 10.59763 -67.20689 3809 ft 159 kts 89°
2026-05-06 23:30 10.59800 -67.19561 3606 ft 158 kts 89°
2026-05-06 23:30 10.59835 -67.18446 3413 ft 158 kts 89°
2026-05-06 23:31 10.59870 -67.17329 3212 ft 157 kts 89°
2026-05-06 23:31 10.59905 -67.16225 3012 ft 153 kts 89°
2026-05-06 23:31 10.59938 -67.15188 2828 ft 141 kts 89°
2026-05-06 23:31 10.59968 -67.14208 2658 ft 136 kts 89°
2026-05-06 23:32 10.59998 -67.13251 2494 ft 136 kts 89°
2026-05-06 23:32 10.60028 -67.12285 2322 ft 135 kts 89°
2026-05-06 23:32 10.60058 -67.11338 2151 ft 134 kts 89°
2026-05-06 23:32 10.60087 -67.10394 1986 ft 133 kts 88°
2026-05-06 23:33 10.60116 -67.09447 1813 ft 133 kts 88°
2026-05-06 23:33 10.60146 -67.08503 1642 ft 132 kts 88°
2026-05-06 23:33 10.60176 -67.07565 1477 ft 133 kts 88°
2026-05-06 23:33 10.60206 -67.06620 1312 ft 133 kts 88°
2026-05-06 23:34 10.60237 -67.05677 1137 ft 132 kts 89°
2026-05-06 23:34 10.60267 -67.04749 963 ft 131 kts 89°
2026-05-06 23:34 10.60296 -67.03809 789 ft 133 kts 89°
2026-05-06 23:34 10.60325 -67.02863 585 ft 136 kts 90°
2026-05-06 23:35 10.60358 -67.01897 430 ft 135 kts 90°
2026-05-06 23:35 10.60385 -67.00935 304 ft 132 kts 90°
2026-05-06 23:35 10.60406 -67.00079 300 ft 100 kts 84°
2026-05-06 23:35 10.60426 -66.99551 280 ft 56 kts 89°
2026-05-06 23:36 10.60439 -66.99253 265 ft 27 kts 85°
2026-05-06 23:36 10.60392 -66.99123 260 ft 21 kts 165°
2026-05-06 23:36 10.60281 -66.99165 265 ft 17 kts 251°
2026-05-06 23:36 10.60270 -66.99271 270 ft 13 kts 267°
2026-05-06 23:37 10.60268 -66.99355 274 ft 10 kts 268°
2026-05-06 23:37 10.60266 -66.99418 277 ft 7 kts 268°
2026-05-06 23:37 10.60265 -66.99465 280 ft 0 kts 268°